Terug naar catalogus

CTC-1C

ActiefCommunicatieSSO
NORAD 66750·PAYLOAD·🇺🇸 United States
Deze satellietnaam is nog niet bevestigd door officiële bronnen.

Gelanceerd Nov 28, 2025 vanaf Vandenberg Space Force Base

Loading…

Volgende Passages (komende 24 uur)

TLE

VersSource: Space-Track

Epoch: Sep 14, 2026, 03:43 UTC

1 66750U 25276CN  26257.15509489  .00003114  00000-0  14590-3 0  9990
2 66750  97.4155 329.4400 0002184  36.7976 323.3409 15.20443769 43947

Volg CTC-1C in realtime met AllMySat

Download on the App Store